Regional Weather Roundup
Issued by NWS

Home | Current Version | Previous Version | Text Only | Print | Product List | Glossary Off
Versions: 1 2 3 4 5 6 7 8 9 10 11 12 13 14 15 16 17 18 19 20 21 22 23 24 25 26 27 28 29 30 31 32 33 34 35 36 37 38 39 40 41 42 43 44 45 46 47 48 49 50

172
ASUS43 KOAX 080210
RWRNE

WEATHER ROUNDUP FOR NEBRASKA
NATIONAL WEATHER SERVICE OMAHA NE
800 PM CST SUN FEB 07 2016

NOTES: SATELLITE DATA IS BEING USED TO AUGMENT CLOUD COVER ABOVE
       12000 FEET.
       "FAIR" INDICATES FEW OR NO CLOUDS BELOW 12,000 FEET WITH NO
       SIGNIFICANT WEATHER AND/OR OBSTRUCTIONS TO VISIBILITY.

  * THESE STATIONS DO NOT REPORT WEATHER SUCH AS RAIN...SNOW OR FOG.

NEZ001>004-019>022-054>056-080300-
NEBRASKA PANHANDLE

CITY           SKY/WX    TMP DP  RH WIND       PRES   REMARKS
SCOTTSBLUFF    PTCLDY    29  15  56 NW18      30.35R WCI  16
ALLIANCE       CLEAR     25  13  60 NW17      30.27R WCI  12
CHADRON        CLEAR     30  14  51 NW21G26   30.31R WCI  17
KIMBALL        CLOUDY    27  15  60 N23G32    30.31S WCI  12
SIDNEY         CLOUDY    25  14  63 NW20      30.30S WCI  11
$$

NEZ057>060-069>072-079>082-080300-
SOUTHWEST NEBRASKA

CITY           SKY/WX    TMP DP  RH WIND       PRES   REMARKS
NORTH PLATTE   CLEAR     29  15  56 NW15      30.20R WCI  18
IMPERIAL       CLEAR     30  15  53 NW21G31   30.28R WCI  17
LEXINGTON      CLEAR     32  17  52 NW18      30.18R WCI  20
MCCOOK         CLEAR     32  20  61 NW20      30.23R WCI  20
OGALLALA       CLEAR     30  15  52 NW21G29   30.26S WCI  18
$$

NEZ005>010-023>029-035>040-094-080300-
NORTH CENTRAL NEBRASKA

CITY           SKY/WX    TMP DP  RH WIND       PRES   REMARKS
VALENTINE      CLOUDY    33  19  56 NW25G35   30.16R WCI  20
AINSWORTH      CLEAR     33  17  51 NW26G37   30.15R WCI  20
BROKEN BOW     PTCLDY    34  16  47 N22G29    30.13R WCI  22
O`NEILL        CLOUDY    34  20  55 NW29G39   30.08S WCI  20
ORD            MOCLDY    34  20  56 NW35G46   30.10R WCI  19
THEDFORD       PTCLDY    34  13  42 NW25G33   30.17R WCI  21
$$

NEZ041-046>049-061>064-073>077-083>087-080300-
SOUTH CENTRAL NEBRASKA

CITY           SKY/WX    TMP DP  RH WIND       PRES   REMARKS
GRAND ISLAND   CLOUDY    36  20  52 NW22      30.10R WCI  25
AURORA         CLOUDY    36  23  58 NW26G32   30.08R WCI  23
HASTINGS       PTCLDY    34  20  56 NW18      30.09S WCI  23
HEBRON         PTCLDY    35  24  63 NW12      30.09F WCI  27
HOLDREGE       CLEAR     34  15  46 NW20G28   30.15S WCI  23
YORK           CLOUDY    36  27  69 NW30G36   30.05S WCI  22
$$

NEZ011>018-030>034-042>045-080300-
NORTHEAST NEBRASKA

CITY           SKY/WX    TMP DP  RH WIND       PRES   REMARKS
NORFOLK        CLOUDY    36  22  56 NW35G48   30.00R WCI  22
ALBION         MOCLDY    35  21  56 NW31G40   30.04R WCI  21
BLAIR          FLURRIES  33  28  83 NW20G28   29.98R WCI  21
COLUMBUS *     CLOUDY    36  21  55 NW16      30.04R WCI  26
FREMONT        CLOUDY    33  28  83 NW17      30.01F WCI  22
TEKAMAH        FLURRIES  33  28  81 NW17      29.99R WCI  22
WAYNE          LGT SNOW  31  28  86 NW29G40   29.99S WCI  17
$$

NEZ050>053-065>068-078-088>093-080300-
SOUTHEAST NEBRASKA

CITY           SKY/WX    TMP DP  RH WIND       PRES   REMARKS
LINCOLN        CLOUDY    37  27  67 NW14      30.05S WCI  28
OMAHA EPPLEY   CLOUDY    34  28  79 NW23G31   29.98S WCI  22
BEATRICE       CLOUDY    37  27  69 NW14      30.05S WCI  28
FALLS CITY     CLOUDY    37  28  70 NW21G31   30.02S WCI  26
NEBRASKA CITY  CLOUDY    33  30  88 NW20G28   30.01S WCI  22
PLATTSMOUTH    CLOUDY    34  27  76 NW23G30   29.99S WCI  22
$$

NEZ044-045-051>053-067-080300-
OMAHA AREA

CITY           SKY/WX    TMP DP  RH WIND       PRES   REMARKS
OMAHA EPPLEY   CLOUDY    34  28  79 NW23G31   29.98S WCI  22
BLAIR          FLURRIES  33  28  83 NW20G28   29.98R WCI  21
FREMONT        CLOUDY    33  28  83 NW17      30.01F WCI  22
MILLARD        LGT RAIN  35  27  73 NW22G32   30.01R WCI  23
OFFUTT AFB     LGT RAIN  36  27  69 NW22G33   29.99R WCI  24
PLATTSMOUTH    CLOUDY    34  27  76 NW23G30   29.99S WCI  22
WAHOO          CLOUDY    35  30  83 NW13      30.02S WCI  26
$$




USA.gov is the U.S. government's official web portal to all federal, state and local government web resources and services.